Home > Weather > Ndjamena > Past weeks

Flag for Chad Past Weather in Ndjamena, Chad — Yesterday and Last 2 Weeks

Now
77 °F

Clear.


Feels Like: 78 °F
Forecast: 79 / 94 °F
Wind: No wind

Location: Ndjamena

Current Time: Jul 31, 2016 at 2:46:58 AM

Latest Report: Jul 31, 2016 at 2:00 AM


Visibility: 10 mi

Pressure: 29.86 "Hg

Humidity: 94%

Dew Point: 75 °F

Location of NdjamenaLocation

Past Weather in Ndjamena — Graph

°F

Ndjamena Temperature Yesterday

Maximum temperature yesterday: 90 °F (at 2:00 PM)
Minimum temperature yesterday: 73 °F (at 12:00 AM)
Average temperature yesterday: 81 °F

High & Low Weather Summary for the Past Weeks

 TemperatureHumidityPressure
High95 °F (Jul 28, 2:00 PM)100% (Jul 16, 3:00 AM)30.04 "Hg (Jul 16, 3:00 AM)
Low70 °F (Jul 22, 1:00 PM)46% (Jul 21, 3:00 PM)29.74 "Hg (Jul 25, 5:00 PM)
Average80 °F81%29.87 "Hg
* Reported Jul 16 1:00 AM — Jul 31 1:00 AM, Ndjamena, Weather by CustomWeather, © 2016

Note: Actual official high and low records may vary slightly from our data, if they occured in-between our weather recording intervals... More about our weather records

Advertising

Ndjamena Weather History for the Previous 24 Hours

Scroll right to see more
 ConditionsComfort  
Time TempWeatherWind HumidityBarometerVisibility
1:00 AM
Sun, Jul 31
79 °FClear.No wind84%29.86 "Hg10 mi
12:00 AM79 °FClear.3 mph89%29.86 "Hg10 mi
11:00 PM
Sat, Jul 30
79 °FClear.3 mph94%29.89 "Hg10 mi
10:00 PM81 °FClear.5 mph89%29.89 "Hg10 mi
9:00 PM81 °FClear.No wind84%29.86 "Hg10 mi
8:00 PM82 °FPassing clouds.No wind70%29.83 "HgN/A
7:00 PM82 °FPassing clouds.No wind70%29.80 "HgN/A
6:00 PM86 °FScattered clouds.No wind62%29.80 "HgN/A
5:00 PM88 °FScattered clouds.No wind55%29.80 "HgN/A
4:00 PM90 °FScattered clouds.2 mph52%29.80 "HgN/A
3:00 PM90 °FScattered clouds.2 mph52%29.83 "HgN/A
2:00 PM90 °FPassing clouds.2 mph52%29.83 "HgN/A
1:00 PM88 °FPassing clouds.6 mph55%29.86 "HgN/A
12:00 PM86 °FScattered clouds.3 mph59%29.89 "HgN/A
11:00 AM82 °FScattered clouds.2 mph70%29.92 "HgN/A
10:00 AM82 °FScattered clouds.No wind70%29.92 "HgN/A
9:00 AM79 °FPassing clouds.3 mph79%29.92 "HgN/A
8:00 AM77 °FPassing clouds.3 mph83%29.89 "HgN/A
7:00 AM73 °FPassing clouds.No wind94%29.86 "HgN/A
6:00 AM73 °FSunny.No wind94%29.86 "Hg10 mi
5:00 AM73 °FClear.No wind94%29.80 "Hg10 mi
4:00 AM73 °FClear.5 mph89%29.80 "Hg10 mi
3:00 AM73 °FClear.No wind89%29.80 "Hg10 mi
2:00 AM81 °FThunderstorms. Passing clouds.1 mph89%29.80 "Hg5 mi
Weather by CustomWeather, © 2016

See weather overviewHow to use our weather pages